星链-35123(STARLINK-35123)

导读 | 豆包AI

STARLINK-35123是美国太空探索技术公司SpaceX星链星座的卫星,于2025年9月18日发射升空。星链项目旨在构建全球卫星互联网星座,为全球用户提供高速低延迟的宽带互联网服务。STARLINK-35123入轨后,将进一步扩充星链星座规模,提升星座覆盖范围与服务能力,助力全球网络覆盖盲区接入互联网。

基本信息
目录编号:
65634
目录名称:
STARLINK-35123
国际标识:
2025-210N
轨道中心:
EARTH
卫星名称:
星链-35123
卫星全名:
星链-35123(STARLINK-35123)
卫星状态:
在轨 (已飞行177 天)
发射日期:
2025-09-18 UTC
国别 :
美国 (US)
星等 :
--
轨道信息
数据来源 国际轨道数据
星历时间: 2026-03-14T05:37:31+0800
13小时前
查看轨道信息
半长轴: 6853.358km
偏心率: 0.0001328
轨道倾角: 53.158°
近地点辐角 51.046°
升交点赤经 287.674°
平近点角 309.066°
近地点: 474.31km
远地点: 476.132km
周期: 94.105分钟
每日圈数: 15.301983
详细信息
固有亮度:
5
最大亮度:
2.5
卫星平台:
Starlink V1.0
覆盖范围:
全球
运营商:
太空探索技术公司
运营商所在国:
美国
制造商(研发单位):
太空探索技术公司
制造商所在国:
美国
使用方式:
暂无
卫星简介
Starlink 计划是 SpaceX 推出的全球卫星互联网项目,通过发射低轨道卫星,为全球尤其是偏远地区提供高速、低延迟的互联网服务。自 2019 年起,Starlink 已部署数千颗卫星,旨在缩小全球数字鸿沟,推动互联网普及。该项目还为军事、航空等行业提供通信支持,带来广泛经济效益。
2D轨道图
3D轨道图
轨道高度分析图
轨道倾角分析图
轨道综合分析图
查看轨道综合分析图